ファン・ネス彗星

327P/Van Ness (2022)

English version
Home page
Updated on July 16, 2022

---------------------------------------------------------------------

・ プロフィール

・ 写真集

・ 軌道要素

Epoch 2022 Aug. 9.0 TT = JDT 2459800.5
T 2022 Sept. 2.41458 TT                                 Rudenko
q   1.5560662            (2000.0)            P               Q
n   0.14651505     Peri.  185.03601     +0.99807350     -0.00311997
a   3.5635365      Node   173.98502     -0.01053162     +0.97572091
e   0.5633366      Incl.   36.25120     -0.06114232     -0.21899538
P   6.73
From 143 observations 2002 Aug. 17-2022 June 6, mean residual 0".9.

・ 星図

・ 光度変化

        m1 = 12.5 + 5 logΔ + 20.0 log r

---------------------------------------------------------------------

軌道要素はM.P.E.C. 2022-L66に掲載されたものです。
星図はステラナビゲータ Ver.10 (アストロアーツ) で作成したものです。
光度グラフはComet for Windowsで作成したものです。

---------------------------------------------------------------------

Copyright(C) Seiichi Yoshida (comet@aerith.net). All rights reserved.